Time,TemperatureF,DewpointF,PressureIn,WindDirection,WindDirectionDegrees,WindSpeedMPH,WindSpeedGustMPH,Humidity,HourlyPrecipIn,Conditions,Clouds,dailyrainin,SoftwareType,DateUTC
2013-01-25 07:40:00,45.5,39.4,29.47,NE,34,12.0,20.0,79,0.00,CLR,,0.00,WeatherDisplay:10.37,2013-01-25 06:40:00,
2013-01-25 07:50:00,45.2,39.1,29.47,NE,52,14.0,20.0,79,0.00,CLR,,0.00,WeatherDisplay:10.37,2013-01-25 06:50:00,
2013-01-25 08:00:00,45.1,38.6,29.47,NE,38,15.0,20.0,78,0.00,CLR,,0.00,WeatherDisplay:10.37,2013-01-25 07:00:00,
2013-01-25 08:10:00,45.3,38.5,29.48,NE,39,13.0,22.0,77,0.00,CLR,,0.00,WeatherDisplay:10.37,2013-01-25 07:10:00,
2013-01-25 08:20:00,45.5,38.7,29.48,NE,35,14.0,21.0,77,0.00,CLR,,0.00,WeatherDisplay:10.37,2013-01-25 07:20:00,
2013-01-25 08:30:00,45.7,38.9,29.48,NE,49,10.0,23.0,77,0.00,CLR,,0.00,WeatherDisplay:10.37,2013-01-25 07:30:00,
2013-01-25 08:40:00,46.0,38.9,29.48,NE,35,10.0,20.0,76,0.00,CLR,,0.00,WeatherDisplay:10.37,2013-01-25 07:40:00,
2013-01-25 08:50:00,46.5,39.0,29.48,NE,35,12.0,18.0,75,0.00,CLR,,0.00,WeatherDisplay:10.37,2013-01-25 07:50:00,
2013-01-25 09:00:00,46.7,39.2,29.48,NE,39,13.0,18.0,75,0.00,CLR,,0.00,WeatherDisplay:10.37,2013-01-25 08:00:00,
2013-01-25 09:10:00,47.2,39.3,29.49,NE,40,10.0,21.0,74,0.00,CLR,,0.00,WeatherDisplay:10.37,2013-01-25 08:10:00,
2013-01-25 09:20:00,47.7,39.8,29.49,NE,51,7.0,17.0,74,0.00,CLR,,0.00,WeatherDisplay:10.37,2013-01-25 08:20:00,
2013-01-25 09:30:00,48.2,39.6,29.49,NE,53,12.0,17.0,72,0.00,CLR,,0.00,WeatherDisplay:10.37,2013-01-25 08:30:00,
2013-01-25 09:40:00,48.5,38.8,29.50,NE,48,14.0,21.0,69,0.00,CLR,,0.00,WeatherDisplay:10.37,2013-01-25 08:40:00,
2013-01-25 09:50:00,48.8,39.1,29.50,NE,50,9.0,17.0,69,0.00,CLR,,0.00,WeatherDisplay:10.37,2013-01-25 08:50:00,
2013-01-25 10:00:00,48.4,38.7,29.50,NE,48,12.0,20.0,69,0.00,CLR,,0.00,WeatherDisplay:10.37,2013-01-25 09:00:00,
2013-01-25 10:10:00,48.2,38.1,29.50,NE,41,7.0,20.0,68,0.00,CLR,,0.00,WeatherDisplay:10.37,2013-01-25 09:10:00,
2013-01-25 10:20:00,48.1,38.4,29.51,NE,50,8.0,16.0,69,0.00,CLR,,0.00,WeatherDisplay:10.37,2013-01-25 09:20:00,
2013-01-25 10:30:00,48.0,38.3,29.51,NE,43,10.0,18.0,69,0.00,CLR,,0.00,WeatherDisplay:10.37,2013-01-25 09:30:00,
2013-01-25 10:40:00,48.1,38.4,29.51,NE,39,8.0,17.0,69,0.00,CLR,,0.00,WeatherDisplay:10.37,2013-01-25 09:40:00,
2013-01-25 10:50:00,48.3,39.0,29.51,NNE,26,10.0,18.0,70,0.00,CLR,,0.00,WeatherDisplay:10.37,2013-01-25 09:50:00,
2013-01-25 11:00:00,48.4,38.7,29.51,NNE,19,12.0,20.0,69,0.00,CLR,,0.00,WeatherDisplay:10.37,2013-01-25 10:00:00,
2013-01-25 11:10:00,48.6,38.5,29.51,North,11,13.0,25.0,68,0.00,CLR,,0.00,WeatherDisplay:10.37,2013-01-25 10:10:00,
2013-01-25 11:20:00,48.6,38.9,29.51,NE,48,12.0,21.0,69,0.00,CLR,,0.00,WeatherDisplay:10.37,2013-01-25 10:20:00,
2013-01-25 11:30:00,48.8,38.7,29.51,NE,40,14.0,23.0,68,0.00,CLR,,0.00,WeatherDisplay:10.37,2013-01-25 10:30:00,
2013-01-25 11:40:00,49.0,38.9,29.51,NE,36,14.0,24.0,68,0.00,CLR,,0.00,WeatherDisplay:10.37,2013-01-25 10:40:00,
2013-01-25 11:50:00,49.6,39.1,29.51,NE,39,13.0,25.0,67,0.00,CLR,,0.00,WeatherDisplay:10.37,2013-01-25 10:50:00,
2013-01-25 12:00:00,50.0,39.1,29.50,NE,39,13.0,23.0,66,0.00,CLR,,0.00,WeatherDisplay:10.37,2013-01-25 11:00:00,
2013-01-25 12:10:00,50.4,39.5,29.50,NNE,30,10.0,20.0,66,0.00,CLR,,0.00,WeatherDisplay:10.37,2013-01-25 11:10:00,
2013-01-25 12:20:00,50.5,38.8,29.50,ENE,58,15.0,23.0,64,0.00,CLR,,0.00,WeatherDisplay:10.37,2013-01-25 11:20:00,
2013-01-25 12:30:00,50.7,38.6,29.50,NE,38,9.0,21.0,63,0.00,CLR,,0.00,WeatherDisplay:10.37,2013-01-25 11:30:00,
2013-01-25 12:40:00,50.9,38.4,29.50,NNE,33,14.0,21.0,62,0.00,CLR,,0.00,WeatherDisplay:10.37,2013-01-25 11:40:00,
2013-01-25 12:50:00,51.0,38.8,29.50,NE,39,13.0,24.0,63,0.00,CLR,,0.00,WeatherDisplay:10.37,2013-01-25 11:50:00,
2013-01-25 13:00:00,50.8,38.2,29.50,NE,38,17.0,22.0,62,0.00,,,0.00,WeatherDisplay:10.37,2013-01-25 12:00:00,
2013-01-25 13:10:00,50.9,38.4,29.49,NNE,19,14.0,21.0,62,0.00,CLR,,0.00,WeatherDisplay:10.37,2013-01-25 12:10:00,
2013-01-25 13:20:00,51.2,39.0,29.50,NNE,33,9.0,17.0,63,0.00,CLR,,0.00,WeatherDisplay:10.37,2013-01-25 12:20:00,
2013-01-25 13:30:00,51.2,38.6,29.50,NE,35,13.0,20.0,62,0.00,CLR,,0.00,WeatherDisplay:10.37,2013-01-25 12:30:00,
2013-01-25 13:40:00,51.4,38.8,29.50,NE,43,10.0,18.0,62,0.00,CLR,,0.00,WeatherDisplay:10.37,2013-01-25 12:40:00,
2013-01-25 13:50:00,51.2,38.6,29.50,NNE,32,7.0,22.0,62,0.00,CLR,,0.00,WeatherDisplay:10.37,2013-01-25 12:50:00,
2013-01-25 14:00:00,51.5,38.5,29.50,NNE,28,10.0,17.0,61,0.00,CLR,,0.00,WeatherDisplay:10.37,2013-01-25 13:00:00,
2013-01-25 14:10:00,51.2,37.8,29.50,NNE,24,13.0,20.0,60,0.00,CLR,,0.00,WeatherDisplay:10.37,2013-01-25 13:10:00,
2013-01-25 14:20:00,51.4,38.0,29.50,NE,37,8.0,20.0,60,0.00,CLR,,0.00,WeatherDisplay:10.37,2013-01-25 13:20:00,
2013-01-25 14:30:00,51.2,37.8,29.51,NNE,17,10.0,18.0,60,0.00,CLR,,0.00,WeatherDisplay:10.37,2013-01-25 13:30:00,
2013-01-25 14:40:00,50.8,38.7,29.51,NNE,24,10.0,18.0,63,0.00,CLR,,0.00,WeatherDisplay:10.37,2013-01-25 13:40:00,
2013-01-25 14:50:00,51.0,38.4,29.51,NE,49,9.0,14.0,62,0.00,CLR,,0.00,WeatherDisplay:10.37,2013-01-25 13:50:00,
2013-01-25 15:00:00,51.0,38.0,29.51,NE,47,5.0,12.0,61,0.00,CLR,,0.00,WeatherDisplay:10.37,2013-01-25 14:00:00,
2013-01-25 15:10:00,50.7,38.1,29.52,NE,43,10.0,18.0,62,0.00,CLR,,0.00,WeatherDisplay:10.37,2013-01-25 14:10:00,
2013-01-25 15:20:00,50.5,38.0,29.52,NNE,18,7.0,13.0,62,0.00,CLR,,0.00,WeatherDisplay:10.37,2013-01-25 14:20:00,
2013-01-25 15:30:00,50.4,37.0,29.52,NE,56,13.0,16.0,60,0.00,CLR,,0.00,WeatherDisplay:10.37,2013-01-25 14:30:00,
2013-01-25 15:40:00,50.3,37.0,29.53,NE,54,8.0,14.0,60,0.00,CLR,,0.00,WeatherDisplay:10.37,2013-01-25 14:40:00,
2013-01-25 15:50:00,50.3,37.8,29.53,ENE,58,6.0,14.0,62,0.00,CLR,,0.00,WeatherDisplay:10.37,2013-01-25 14:50:00,
2013-01-25 16:00:00,50.1,37.6,29.53,NE,44,8.0,13.0,62,0.00,CLR,,0.00,WeatherDisplay:10.37,2013-01-25 15:00:00,
2013-01-25 16:10:00,49.9,37.8,29.53,NE,42,7.0,15.0,63,0.00,CLR,,0.00,WeatherDisplay:10.37,2013-01-25 15:10:00,
2013-01-25 16:20:00,49.8,38.1,29.54,NE,41,7.0,17.0,64,0.00,CLR,,0.00,WeatherDisplay:10.37,2013-01-25 15:20:00,
2013-01-25 16:30:00,49.7,38.0,29.54,NE,37,7.0,14.0,64,0.00,CLR,,0.00,WeatherDisplay:10.37,2013-01-25 15:30:00,
2013-01-25 16:40:00,49.7,37.6,29.55,NE,44,12.0,17.0,63,0.00,CLR,,0.00,WeatherDisplay:10.37,2013-01-25 15:40:00,
2013-01-25 16:50:00,49.5,38.2,29.55,NE,39,3.0,12.0,65,0.00,CLR,,0.00,WeatherDisplay:10.37,2013-01-25 15:50:00,
2013-01-25 17:00:00,49.2,37.9,29.55,NE,42,6.0,9.0,65,0.00,CLR,,0.00,WeatherDisplay:10.37,2013-01-25 16:00:00,
2013-01-25 17:10:00,48.9,37.6,29.56,NE,54,3.0,10.0,65,0.00,CLR,,0.00,WeatherDisplay:10.37,2013-01-25 16:10:00,
2013-01-25 17:20:00,48.6,37.3,29.56,NE,46,9.0,14.0,65,0.00,CLR,,0.00,WeatherDisplay:10.37,2013-01-25 16:20:00,
2013-01-25 17:30:00,48.3,37.5,29.56,NE,40,7.0,12.0,66,0.00,CLR,,0.00,WeatherDisplay:10.37,2013-01-25 16:30:00,
2013-01-25 17:40:00,48.1,37.7,29.57,NE,42,6.0,12.0,67,0.00,CLR,,0.00,WeatherDisplay:10.37,2013-01-25 16:40:00,
2013-01-25 17:50:00,47.8,37.8,29.57,NE,39,3.0,12.0,68,0.00,CLR,,0.00,WeatherDisplay:10.37,2013-01-25 16:50:00,
2013-01-25 18:00:00,47.6,37.2,29.58,NE,40,8.0,15.0,67,0.00,CLR,,0.00,WeatherDisplay:10.37,2013-01-25 17:00:00,
2013-01-25 18:10:00,47.5,37.5,29.58,NE,44,7.0,15.0,68,0.00,CLR,,0.00,WeatherDisplay:10.37,2013-01-25 17:10:00,
2013-01-25 18:20:00,47.4,37.4,29.58,NE,39,10.0,13.0,68,0.00,CLR,,0.00,WeatherDisplay:10.37,2013-01-25 17:20:00,
2013-01-25 18:30:00,47.2,37.2,29.58,NE,34,6.0,13.0,68,0.00,CLR,,0.00,WeatherDisplay:10.37,2013-01-25 17:30:00,
2013-01-25 18:40:00,47.0,37.4,29.59,NE,42,7.0,12.0,69,0.00,CLR,,0.00,WeatherDisplay:10.37,2013-01-25 17:40:00,
2013-01-25 18:50:00,46.9,37.3,29.59,NE,37,7.0,12.0,69,0.00,CLR,,0.00,WeatherDisplay:10.37,2013-01-25 17:50:00,
2013-01-25 19:00:00,46.7,37.4,29.60,NE,36,7.0,12.0,70,0.00,CLR,,0.00,WeatherDisplay:10.37,2013-01-25 18:00:00,
2013-01-25 19:10:00,46.5,37.2,29.60,NE,49,7.0,14.0,70,0.00,CLR,,0.00,WeatherDisplay:10.37,2013-01-25 18:10:00,
2013-01-25 19:20:00,46.3,37.4,29.60,NNE,33,6.0,13.0,71,0.00,CLR,,0.00,WeatherDisplay:10.37,2013-01-25 18:20:00,
2013-01-25 19:30:00,46.1,37.2,29.60,NE,35,7.0,12.0,71,0.00,CLR,,0.00,WeatherDisplay:10.37,2013-01-25 18:30:00,
2013-01-25 19:40:00,45.9,37.4,29.61,NE,42,3.0,12.0,72,0.00,CLR,,0.00,WeatherDisplay:10.37,2013-01-25 18:40:00,
2013-01-25 19:50:00,45.9,37.4,29.61,NE,54,2.0,12.0,72,0.00,CLR,,0.00,WeatherDisplay:10.37,2013-01-25 18:50:00,
2013-01-25 20:00:00,45.7,37.2,29.61,ENE,77,3.0,8.0,72,0.00,CLR,,0.00,WeatherDisplay:10.37,2013-01-25 19:00:00,
2013-01-25 20:10:00,45.5,37.3,29.61,NE,52,6.0,12.0,73,0.00,CLR,,0.00,WeatherDisplay:10.37,2013-01-25 19:10:00,
2013-01-25 20:20:00,45.4,36.9,29.62,NNE,28,6.0,12.0,72,0.00,CLR,,0.00,WeatherDisplay:10.37,2013-01-25 19:20:00,
2013-01-25 20:30:00,45.3,36.8,29.62,NE,51,5.0,12.0,72,0.00,CLR,,0.00,WeatherDisplay:10.37,2013-01-25 19:30:00,
2013-01-25 20:40:00,45.3,36.8,29.62,NE,41,6.0,12.0,72,0.00,CLR,,0.00,WeatherDisplay:10.37,2013-01-25 19:40:00,
2013-01-25 20:50:00,45.5,36.6,29.63,NNE,32,8.0,13.0,71,0.00,CLR,,0.00,WeatherDisplay:10.37,2013-01-25 19:50:00,
2013-01-25 21:00:00,45.5,36.6,29.63,NE,43,5.0,12.0,71,0.00,CLR,,0.00,WeatherDisplay:10.37,2013-01-25 20:00:00,
2013-01-25 21:10:00,45.4,36.5,29.63,NE,40,6.0,10.0,71,0.00,CLR,,0.00,WeatherDisplay:10.37,2013-01-25 20:10:00,
2013-01-25 21:20:00,45.5,36.3,29.63,NE,45,9.0,13.0,70,0.00,CLR,,0.00,WeatherDisplay:10.37,2013-01-25 20:20:00,
2013-01-25 21:30:00,45.6,36.0,29.63,NE,40,9.0,14.0,69,0.00,CLR,,0.00,WeatherDisplay:10.37,2013-01-25 20:30:00,
2013-01-25 21:40:00,45.5,36.3,29.64,NE,44,5.0,15.0,70,0.00,CLR,,0.00,WeatherDisplay:10.37,2013-01-25 20:40:00,
2013-01-25 21:50:00,45.3,36.1,29.64,NE,50,6.0,10.0,70,0.00,CLR,,0.00,WeatherDisplay:10.37,2013-01-25 20:50:00,
2013-01-25 22:00:00,45.2,36.4,29.64,NE,44,6.0,12.0,71,0.00,CLR,,0.00,WeatherDisplay:10.37,2013-01-25 21:00:00,
2013-01-25 22:10:00,45.1,35.9,29.64,NE,43,8.0,13.0,70,0.00,CLR,,0.00,WeatherDisplay:10.37,2013-01-25 21:10:00,
2013-01-25 22:20:00,45.0,35.8,29.64,NNE,31,8.0,14.0,70,0.00,CLR,,0.00,WeatherDisplay:10.37,2013-01-25 21:20:00,
2013-01-25 22:30:00,44.9,35.7,29.64,NE,42,6.0,15.0,70,0.00,CLR,,0.00,WeatherDisplay:10.37,2013-01-25 21:30:00,
2013-01-25 22:40:00,44.8,35.6,29.64,NE,39,9.0,16.0,70,0.00,CLR,,0.00,WeatherDisplay:10.37,2013-01-25 21:40:00,
2013-01-25 22:50:00,44.8,35.6,29.64,NE,35,7.0,16.0,70,0.00,CLR,,0.00,WeatherDisplay:10.37,2013-01-25 21:50:00,
2013-01-25 23:00:00,44.9,35.7,29.65,ENE,71,9.0,14.0,70,0.00,CLR,,0.00,WeatherDisplay:10.37,2013-01-25 22:00:00,
2013-01-25 23:10:00,44.9,35.7,29.65,NE,51,5.0,12.0,70,0.00,CLR,,0.00,WeatherDisplay:10.37,2013-01-25 22:10:00,